Bartow, Florida, United States (33830)
Lat: 27.90N, Lon: 81.84W
Wx Zone: FLZ052
Local Info
Past Weather Observations for Thursday, March 26, 2015

NOTE: This archive is for the closest National Weather Service station to Bartow. Information may differ from the station used for current weather conditions.

Click here for Long-term Archive

Time Weather Temperature Dewpoint Humidity Pressure Winds Precip Visibility
23:55
Clear
68°F / 20°C 66°F / 19°C 94% 29.95 in
(1014 mb)
S 4.6 mph
(S 7 kph)
- 10SM
23:35
Clear
68°F / 20°C 64°F / 18°C 88% 29.95 in
(1014 mb)
Calm - 10SM
23:15
Clear
68°F / 20°C 64°F / 18°C 88% 29.95 in
(1014 mb)
Calm - 10SM
22:55
Clear
68°F / 20°C 64°F / 18°C 88% 29.95 in
(1014 mb)
S 3.5 mph
(S 6 kph)
- 10SM
22:35
Clear
70°F / 21°C 64°F / 18°C 83% 29.95 in
(1014 mb)
Calm - 10SM
22:15
Clear
70°F / 21°C 64°F / 18°C 83% 29.98 in
(1015 mb)
WNW 4.6 mph
(WNW 7 kph)
- 10SM
21:55
Clear
70°F / 21°C 63°F / 17°C 78% 29.98 in
(1015 mb)
WNW 6.9 mph
(WNW 11 kph)
- 10SM
21:35
Mostly Cloudy
72°F / 22°C 63°F / 17°C 73% 29.98 in
(1015 mb)
WNW 8.1 mph
(WNW 13 kph)
- 10SM
21:15
Mostly Cloudy
72°F / 22°C 64°F / 18°C 78% 29.98 in
(1015 mb)
WNW 11.5 mph
(WNW 19 kph)
- 10SM
20:55
Partly Cloudy
75°F / 24°C 70°F / 21°C 83% 29.95 in
(1014 mb)
SSW 9.2 mph
(SSW 15 kph)
- 10SM
20:35
Clear
75°F / 24°C 70°F / 21°C 83% 29.95 in
(1014 mb)
SW 8.1 mph
(SW 13 kph)
- 10SM
20:15
Partly Cloudy
75°F / 24°C 68°F / 20°C 78% 29.95 in
(1014 mb)
SSW 6.9 mph
(SSW 11 kph)
- 10SM
19:55
Clear
75°F / 24°C 68°F / 20°C 78% 29.92 in
(1013 mb)
SW 6.9 mph
(SW 11 kph)
- 10SM
19:35
Partly Cloudy
77°F / 25°C 68°F / 20°C 74% 29.92 in
(1013 mb)
SW 8.1 mph
(SW 13 kph)
- 10SM
19:15
Partly Cloudy
79°F / 26°C 66°F / 19°C 65% 29.92 in
(1013 mb)
SW 10.4 mph
(SW 17 kph)
- 10SM
18:55
Clear
79°F / 26°C 66°F / 19°C 65% 29.92 in
(1013 mb)
SW 11.5 mph
(SW 19 kph)
- 10SM
18:35
Clear
79°F / 26°C 66°F / 19°C 65% 29.92 in
(1013 mb)
SW 9.2 mph
(SW 15 kph)
- 10SM
18:15
Clear
81°F / 27°C 66°F / 19°C 62% 29.92 in
(1013 mb)
SW 11.5 mph
(SW 19 kph)
- 10SM
17:55
Clear
82°F / 28°C 64°F / 18°C 55% 29.89 in
(1012 mb)
SW 13.8 mph
(SW 22 kph)
- 10SM
17:35
Clear
82°F / 28°C 64°F / 18°C 55% 29.89 in
(1012 mb)
SW 17.3 mph
(SW 28 kph)
- 10SM
17:15
Clear
84°F / 29°C 63°F / 17°C 48% 29.89 in
(1012 mb)
SW 17.3 mph
(SW 28 kph)
- 10SM
16:55
Clear
84°F / 29°C 63°F / 17°C 48% 29.89 in
(1012 mb)
SW 18.4 mph
(SW 30 kph)
- 10SM
16:35
Clear
86°F / 30°C 63°F / 17°C 46% 29.89 in
(1012 mb)
SW 16.1 mph
(SW 26 kph)
- 10SM
15:50
Partly Cloudy
88°F / 31°C 64°F / 18°C 46% 29.89 in
(1012 mb)
SW 20.7 mph
(SW 33 kph)
- 10SM
14:50
Mostly Cloudy
79°F / 26°C 64°F / 18°C 61% 29.95 in
(1014 mb)
S 11.5 mph
(S 19 kph)
- 10SM
13:55
Mostly Cloudy
84°F / 29°C 63°F / 17°C 48% 29.95 in
(1014 mb)
SW 11.5 mph
(SW 19 kph)
- 10SM
12:50
Mostly Cloudy
84°F / 29°C 63°F / 17°C 48% 29.98 in
(1015 mb)
SW 17.3 mph
(SW 28 kph)
- 10SM
11:50
Mostly Cloudy
84°F / 29°C 63°F / 17°C 48% 30.01 in
(1016 mb)
S 17.3 mph
(S 28 kph)
- 10SM
09:55
Mostly Cloudy
79°F / 26°C 66°F / 19°C 65% 30.04 in
(1017 mb)
S 11.5 mph
(S 19 kph)
- 10SM
08:47
Mostly Cloudy
70°F / 21°C N/A N/A 30.06 in
(1018 mb)
SE 4.6 mph
(SE 7 kph)
- 10SM
07:47
Mostly Cloudy
Hazy
N/A N/A N/A 30.06 in
(1018 mb)
SE 5.8 mph
(SE 9 kph)
- 5SM
06:50
Mostly Cloudy
Fog And Mist
66°F / 19°C N/A N/A 30.06 in
(1018 mb)
SE 5.8 mph
(SE 9 kph)
- 2SM
06:15
Partly Cloudy
Fog And Mist
64°F / 18°C N/A N/A 30.04 in
(1017 mb)
ESE 4.6 mph
(ESE 7 kph)
- 1 1/4SM
05:55
Clear
Hazy
64°F / 18°C N/A N/A 30.04 in
(1017 mb)
E 4.6 mph
(E 7 kph)
- 4SM
05:35
Clear
Fog And Mist
63°F / 17°C N/A N/A 30.04 in
(1017 mb)
Calm - 3SM
05:15
Obscured
Fog And Mist
63°F / 17°C N/A N/A 30.04 in
(1017 mb)
Calm - 3/4SM
04:55
Overcast
Fog
63°F / 17°C N/A N/A 30.04 in
(1017 mb)
Calm - 1/4SM
04:35
Overcast
Fog
63°F / 17°C N/A N/A 30.04 in
(1017 mb)
Calm - 1/2SM
04:15
Mostly Cloudy
Fog
63°F / 17°C N/A N/A 30.04 in
(1017 mb)
Calm - 1/2SM
03:55
Clear
Fog And Mist
63°F / 17°C N/A N/A 30.04 in
(1017 mb)
Calm - 1SM
03:35
Clear
63°F / 17°C N/A N/A 30.04 in
(1017 mb)
Calm - 9SM
03:15
Obscured
Fog And Mist
63°F / 17°C N/A N/A 30.04 in
(1017 mb)
Calm - 3/4SM
02:55
Clear
Hazy
63°F / 17°C N/A N/A 30.04 in
(1017 mb)
Calm - 5SM
02:35
Clear
64°F / 18°C N/A N/A 30.04 in
(1017 mb)
Calm - 7SM
02:15
Clear
Hazy
64°F / 18°C N/A N/A 30.06 in
(1018 mb)
Calm - 5SM
01:55
Clear
64°F / 18°C N/A N/A 30.06 in
(1018 mb)
Calm - 9SM
01:35
Clear
64°F / 18°C N/A N/A 30.06 in
(1018 mb)
Calm - 10SM
01:15
Clear
64°F / 18°C 64°F / 18°C 100% 30.06 in
(1018 mb)
SE 4.6 mph
(SE 7 kph)
- 10SM
00:55
Clear
64°F / 18°C 64°F / 18°C 100% 30.09 in
(1019 mb)
SE 4.6 mph
(SE 7 kph)
- 10SM
00:35
Clear
64°F / 18°C 64°F / 18°C 100% 30.09 in
(1019 mb)
ESE 4.6 mph
(ESE 7 kph)
- 10SM
00:15
Clear
64°F / 18°C 64°F / 18°C 100% 30.09 in
(1019 mb)
SE 4.6 mph
(SE 7 kph)
- 10SM
Time Weather Temperature Dewpoint Humidity Pressure Winds Precip Visibility


Weather for websites

WeatherForYou.com, LLC is not responsible for any damages or problems caused by this service. Current weather conditions are obtained from the closest station including government and personal stations which may have varying degrees of accuracy. Weather forecasts are derived from the NOAA NDFD. Like all things, this site belongs to Jesus Christ... He just trusts me to maintain it. If you have any questions or comments email webmaster@weatherforyou.com

Copyright © 2015, WeatherForYou.com LLC. All rights reserved.